�������l�o���
Date,Time,MP-1(��Sv/h),MP-2(��Sv/h),MP-3(��Sv/h),MP-4(��Sv/h),MP-5(��Sv/h),MP-6(��Sv/h),MP-7(��Sv/h),MP-8(��Sv/h),����,����(m/s),���J
2024/05/06,00:00,0.520,0.794,0.496,0.993,0.720,0.318,0.561,0.523,��,11.4,��
2024/05/06,00:10,0.519,0.794,0.497,0.993,0.720,0.318,0.561,0.524,��,10.9,��
2024/05/06,00:20,0.520,0.795,0.498,0.993,0.719,0.318,0.560,0.523,��,9.9,��
2024/05/06,00:30,0.522,0.793,0.497,0.991,0.720,0.319,0.559,0.524,��,9.6,��
2024/05/06,00:40,0.521,0.794,0.496,0.993,0.720,0.318,0.560,0.524,��,9.4,��
2024/05/06,00:50,0.522,0.795,0.495,0.991,0.718,0.319,0.561,0.523,��,9.0,��
2024/05/06,01:00,0.522,0.796,0.497,0.993,0.718,0.318,0.561,0.522,��,8.4,��
2024/05/06,01:10,0.521,0.794,0.495,0.992,0.719,0.318,0.561,0.524,��,8.2,��
2024/05/06,01:20,0.520,0.797,0.497,0.991,0.718,0.319,0.561,0.523,��,7.9,��
2024/05/06,01:30,0.520,0.793,0.497,0.991,0.720,0.318,0.560,0.524,��,8.4,��
2024/05/06,01:40,0.521,0.794,0.496,0.992,0.720,0.320,0.560,0.523,��,7.8,��
2024/05/06,01:50,0.523,0.795,0.495,0.991,0.718,0.319,0.561,0.524,��,8.4,��
2024/05/06,02:00,0.522,0.795,0.497,0.992,0.720,0.320,0.562,0.523,��,8.4,��
2024/05/06,02:10,0.522,0.796,0.496,0.991,0.719,0.320,0.560,0.524,��,7.1,��
2024/05/06,02:20,0.524,0.795,0.496,0.991,0.721,0.320,0.560,0.523,��,7.0,��
2024/05/06,02:30,0.522,0.795,0.495,0.991,0.718,0.320,0.561,0.523,��,6.9,��
2024/05/06,02:40,0.522,0.795,0.496,0.992,0.722,0.320,0.561,0.523,��쐼,6.3,��
2024/05/06,02:50,0.521,0.795,0.497,0.991,0.721,0.319,0.562,0.522,��,6.2,��
2024/05/06,03:00,0.524,0.794,0.496,0.989,0.719,0.320,0.563,0.523,��,4.9,��
2024/05/06,03:10,0.522,0.794,0.498,0.991,0.720,0.319,0.562,0.523,��,4.8,��
2024/05/06,03:20,0.521,0.796,0.495,0.992,0.720,0.319,0.562,0.523,��,5.0,��
2024/05/06,03:30,0.522,0.793,0.497,0.991,0.720,0.320,0.563,0.524,��,5.8,��
2024/05/06,03:40,0.524,0.795,0.496,0.992,0.719,0.319,0.564,0.521,��,6.5,��
2024/05/06,03:50,0.522,0.795,0.495,0.990,0.718,0.322,0.564,0.524,��,7.0,��
2024/05/06,04:00,0.522,0.795,0.496,0.993,0.718,0.320,0.561,0.523,��,6.5,��
2024/05/06,04:10,0.522,0.792,0.497,0.992,0.719,0.320,0.563,0.522,��,6.7,��
2024/05/06,04:20,0.522,0.793,0.497,0.990,0.717,0.320,0.563,0.522,��,7.2,��
2024/05/06,04:30,0.522,0.794,0.496,0.991,0.721,0.320,0.564,0.523,��,5.5,��
2024/05/06,04:40,0.522,0.795,0.498,0.992,0.720,0.319,0.565,0.524,��,6.4,��
2024/05/06,04:50,0.523,0.795,0.495,0.990,0.719,0.320,0.564,0.523,��,5.0,��
2024/05/06,05:00,0.523,0.794,0.497,0.991,0.719,0.320,0.564,0.523,��,4.2,��
2024/05/06,05:10,0.520,0.793,0.495,0.990,0.721,0.321,0.564,0.524,��,3.9,��
2024/05/06,05:20,0.521,0.792,0.498,0.992,0.720,0.319,0.563,0.524,��,4.9,��
2024/05/06,05:30,0.522,0.794,0.495,0.992,0.720,0.321,0.563,0.525,��,4.6,��
2024/05/06,05:40,0.522,0.793,0.498,0.991,0.720,0.318,0.563,0.524,��,4.4,��
2024/05/06,05:50,0.522,0.794,0.496,0.990,0.721,0.321,0.563,0.523,��,4.2,��
2024/05/06,06:00,0.521,0.794,0.495,0.990,0.720,0.319,0.564,0.524,��,6.6,��
2024/05/06,06:10,0.523,0.793,0.496,0.991,0.719,0.319,0.565,0.525,��,7.8,��
2024/05/06,06:20,0.523,0.796,0.497,0.993,0.721,0.320,0.564,0.524,��,8.2,��
2024/05/06,06:30,0.521,0.797,0.496,0.992,0.721,0.320,0.564,0.523,��,8.3,��
2024/05/06,06:40,0.522,0.794,0.496,0.992,0.720,0.319,0.563,0.524,��쓌,9.0,��
2024/05/06,06:50,0.521,0.793,0.497,0.990,0.719,0.318,0.563,0.523,��,8.8,��
2024/05/06,07:00,0.521,0.795,0.497,0.991,0.719,0.317,0.563,0.523,��쓌,9.9,��
2024/05/06,07:10,0.523,0.794,0.495,0.992,0.720,0.317,0.561,0.523,��쓌,9.6,��
2024/05/06,07:20,0.521,0.791,0.495,0.991,0.718,0.317,0.561,0.522,��쓌,9.8,��
2024/05/06,07:30,0.520,0.792,0.496,0.994,0.717,0.318,0.562,0.523,��,9.2,��
2024/05/06,07:40,0.520,0.791,0.495,0.989,0.718,0.319,0.562,0.523,��쓌,9.9,��
2024/05/06,07:50,0.519,0.791,0.495,0.991,0.718,0.319,0.560,0.523,��,9.8,��
2024/05/06,08:00,0.519,0.792,0.496,0.990,0.718,0.318,0.562,0.523,��쓌,10.6,��
2024/05/06,08:10,0.519,0.793,0.494,0.993,0.719,0.319,0.561,0.522,��쓌,12.7,��
2024/05/06,08:20,0.521,0.793,0.493,0.992,0.717,0.319,0.562,0.522,��쓌,11.6,��
2024/05/06,08:30,0.521,0.792,0.493,0.994,0.717,0.318,0.561,0.521,��쓌,13.6,��
2024/05/06,08:40,0.519,0.794,0.494,0.992,0.717,0.318,0.561,0.522,��쓌,12.4,��
2024/05/06,08:50,0.519,0.793,0.494,0.992,0.718,0.318,0.560,0.521,��쓌,12.7,��
2024/05/06,09:00,0.519,0.791,0.493,0.994,0.717,0.318,0.561,0.521,��쓌,12.7,��
2024/05/06,09:10,0.520,0.793,0.494,0.993,0.718,0.320,0.562,0.521,��쓌,14.7,��
2024/05/06,09:20,0.520,0.792,0.494,0.993,0.717,0.319,0.561,0.522,��,13.5,��
2024/05/06,09:30,0.521,0.793,0.495,0.992,0.716,0.319,0.561,0.522,��쓌,14.4,��
2024/05/06,09:40,0.519,0.792,0.494,0.993,0.717,0.318,0.560,0.521,��쓌,13.8,��
2024/05/06,09:50,0.520,0.791,0.493,0.991,0.720,0.318,0.561,0.522,��,14.1,��
2024/05/06,10:00,0.520,0.792,0.494,0.992,0.717,0.318,0.560,0.522,��,12.7,��
2024/05/06,10:10,0.521,0.793,0.494,0.993,0.718,0.316,0.560,0.522,��,15.0,��
2024/05/06,10:20,0.521,0.792,0.493,0.989,0.720,0.318,0.560,0.521,��쓌,14.7,��
2024/05/06,10:30,0.521,0.792,0.492,0.990,0.717,0.318,0.560,0.522,��쓌,14.4,��
2024/05/06,10:40,0.520,0.792,0.494,0.991,0.717,0.317,0.558,0.522,��쓌,14.7,��
2024/05/06,10:50,0.521,0.792,0.494,0.990,0.717,0.319,0.560,0.521,��쓌,13.0,��
2024/05/06,11:00,0.520,0.790,0.496,0.994,0.719,0.319,0.560,0.522,��,13.3,��
2024/05/06,11:10,0.521,0.787,0.494,0.992,0.719,0.318,0.559,0.520,��쓌,14.1,��
2024/05/06,11:20,0.521,0.792,0.496,0.992,0.718,0.319,0.560,0.524,��쓌,15.3,��
2024/05/06,11:30,0.522,0.793,0.495,0.994,0.721,0.319,0.560,0.521,��,14.6,��
2024/05/06,11:40,0.519,0.792,0.496,0.990,0.717,0.319,0.560,0.522,��쓌,16.3,��
2024/05/06,11:50,0.520,0.792,0.493,0.995,0.720,0.321,0.560,0.521,��쓌,14.6,��
2024/05/06,12:00,0.521,0.793,0.495,0.992,0.721,0.319,0.559,0.522,��쓌,11.6,��
2024/05/06,12:10,0.521,0.791,0.495,0.989,0.720,0.320,0.560,0.521,��쓌,10.8,��
2024/05/06,12:20,0.520,0.791,0.497,0.990,0.719,0.321,0.561,0.522,��,8.0,��
2024/05/06,12:30,0.522,0.792,0.495,0.991,0.720,0.320,0.560,0.522,��,10.7,��
2024/05/06,12:40,0.522,0.792,0.495,0.991,0.718,0.319,0.562,0.522,��,10.0,��
2024/05/06,12:50,0.521,0.792,0.495,0.993,0.720,0.319,0.559,0.522,��,9.3,��
2024/05/06,13:00,0.522,0.792,0.495,0.992,0.718,0.320,0.560,0.523,��,8.9,��
2024/05/06,13:10,0.521,0.792,0.495,0.994,0.718,0.319,0.560,0.522,��,7.9,��
2024/05/06,13:20,0.520,0.793,0.495,0.991,0.718,0.318,0.560,0.522,��,6.7,��
2024/05/06,13:30,0.520,0.793,0.497,0.992,0.718,0.321,0.560,0.522,��,6.0,��
2024/05/06,13:40,0.521,0.791,0.498,0.994,0.720,0.320,0.560,0.522,��,8.8,��
2024/05/06,13:50,0.520,0.792,0.495,0.992,0.719,0.319,0.560,0.523,��,7.7,��
2024/05/06,14:00,0.523,0.791,0.497,0.992,0.717,0.319,0.560,0.523,��,10.2,��
2024/05/06,14:10,0.523,0.793,0.496,0.995,0.721,0.321,0.560,0.522,��,10.7,��
2024/05/06,14:20,0.521,0.789,0.496,0.993,0.719,0.320,0.561,0.521,��,11.3,��
2024/05/06,14:30,0.523,0.791,0.495,0.994,0.719,0.320,0.560,0.527,��,11.1,��
2024/05/06,14:40,0.520,0.793,0.494,0.992,0.718,0.321,0.560,0.521,��,11.0,��
2024/05/06,14:50,0.522,0.791,0.495,0.991,0.718,0.320,0.560,0.521,��,10.2,��
2024/05/06,15:00,0.522,0.791,0.497,0.992,0.719,0.321,0.560,0.522,��,9.7,��
2024/05/06,15:10,0.523,0.792,0.496,0.993,0.720,0.320,0.559,0.522,��,9.6,��
2024/05/06,15:20,0.521,0.792,0.498,0.992,0.720,0.320,0.561,0.522,��,11.6,��
2024/05/06,15:30,0.521,0.791,0.497,0.994,0.719,0.320,0.561,0.522,��,11.3,��
2024/05/06,15:40,0.521,0.795,0.498,0.994,0.721,0.320,0.559,0.523,��,9.4,��
2024/05/06,15:50,0.521,0.793,0.496,0.993,0.720,0.320,0.560,0.523,��,8.7,��
2024/05/06,16:00,0.522,0.791,0.495,0.994,0.719,0.318,0.560,0.523,��,9.2,�L
2024/05/06,16:10,0.521,0.793,0.495,0.995,0.720,0.318,0.558,0.524,��,11.3,��
2024/05/06,16:20,0.520,0.791,0.497,0.993,0.719,0.319,0.561,0.522,��,11.6,��
2024/05/06,16:30,0.519,0.793,0.497,0.993,0.719,0.319,0.559,0.523,��,11.6,��
2024/05/06,16:40,0.521,0.792,0.495,0.993,0.718,0.318,0.560,0.523,��,12.1,��
2024/05/06,16:50,0.522,0.792,0.494,0.993,0.720,0.318,0.559,0.523,��,11.6,��
2024/05/06,17:00,0.521,0.793,0.496,0.994,0.719,0.317,0.559,0.524,��,11.6,��
2024/05/06,17:10,0.519,0.792,0.495,0.994,0.718,0.318,0.560,0.523,��,10.2,��
2024/05/06,17:20,0.520,0.792,0.495,0.994,0.720,0.320,0.560,0.522,��,9.2,��
2024/05/06,17:30,0.522,0.793,0.495,0.995,0.719,0.319,0.560,0.523,��,10.7,��
2024/05/06,17:40,0.520,0.794,0.495,0.994,0.721,0.318,0.560,0.523,��,11.6,��
2024/05/06,17:50,0.521,0.792,0.499,0.994,0.718,0.319,0.560,0.523,��,10.2,��
2024/05/06,18:00,0.521,0.790,0.497,0.993,0.721,0.319,0.560,0.523,��,11.1,��
2024/05/06,18:10,0.521,0.794,0.496,0.996,0.721,0.321,0.560,0.524,��,11.4,��
2024/05/06,18:20,0.521,0.792,0.497,0.995,0.720,0.319,0.559,0.524,��,8.6,��
2024/05/06,18:30,0.521,0.793,0.496,0.994,0.722,0.319,0.559,0.525,��,8.0,��
2024/05/06,18:40,0.520,0.793,0.497,0.994,0.721,0.319,0.560,0.524,��,8.3,��
2024/05/06,18:50,0.521,0.793,0.495,0.994,0.718,0.319,0.561,0.523,��쓌,6.8,��
2024/05/06,19:00,0.520,0.794,0.496,0.993,0.717,0.319,0.560,0.525,��쓌,7.7,��
2024/05/06,19:10,0.522,0.792,0.496,0.995,0.718,0.319,0.560,0.524,��쓌,8.7,��
2024/05/06,19:20,0.519,0.791,0.496,0.994,0.718,0.319,0.559,0.524,��쓌,7.1,��
2024/05/06,19:30,0.520,0.792,0.497,0.994,0.720,0.320,0.559,0.523,��쓌,8.7,��
2024/05/06,19:40,0.520,0.791,0.497,0.993,0.718,0.317,0.560,0.524,��쓌,9.9,��
2024/05/06,19:50,0.521,0.792,0.496,0.994,0.718,0.318,0.559,0.524,��쓌,9.6,��
2024/05/06,20:00,0.521,0.791,0.496,0.993,0.718,0.319,0.558,0.525,��쓌,10.2,��
2024/05/06,20:10,0.520,0.792,0.496,0.992,0.718,0.319,0.560,0.526,��쓌,8.7,��
2024/05/06,20:20,0.522,0.792,0.496,0.996,0.718,0.320,0.559,0.525,��쓌,9.6,��
2024/05/06,20:30,0.521,0.791,0.497,0.994,0.719,0.319,0.561,0.524,��쓌,9.3,��
2024/05/06,20:40,0.521,0.793,0.498,0.995,0.718,0.319,0.562,0.523,��,7.7,��
2024/05/06,20:50,0.521,0.794,0.497,0.992,0.718,0.318,0.562,0.525,��,9.0,��
2024/05/06,21:00,0.522,0.795,0.500,0.994,0.720,0.318,0.561,0.525,��,9.0,��
2024/05/06,21:10,0.521,0.794,0.497,0.992,0.720,0.319,0.562,0.524,��,8.8,��
2024/05/06,21:20,0.522,0.796,0.497,0.994,0.718,0.320,0.562,0.522,��,9.0,��
2024/05/06,21:30,0.522,0.795,0.498,0.991,0.718,0.319,0.563,0.524,��,9.0,��
2024/05/06,21:40,0.522,0.795,0.497,0.993,0.719,0.319,0.562,0.524,��,9.2,��
2024/05/06,21:50,0.521,0.796,0.497,0.992,0.720,0.318,0.561,0.525,��,8.3,��
2024/05/06,22:00,0.523,0.798,0.497,0.992,0.719,0.319,0.563,0.526,��,8.0,��
2024/05/06,22:10,0.521,0.795,0.497,0.994,0.718,0.318,0.562,0.524,��,7.3,��
2024/05/06,22:20,0.523,0.793,0.497,0.992,0.721,0.318,0.562,0.523,��,8.4,��
2024/05/06,22:30,0.521,0.797,0.498,0.991,0.721,0.320,0.563,0.524,��,8.0,��
2024/05/06,22:40,0.523,0.794,0.499,0.994,0.722,0.319,0.563,0.524,��,6.9,��
2024/05/06,22:50,0.521,0.794,0.496,0.994,0.721,0.321,0.562,0.523,��,6.6,��
2024/05/06,23:00,0.520,0.797,0.497,0.994,0.722,0.319,0.563,0.524,��쓌,6.7,��
2024/05/06,23:10,0.521,0.793,0.496,0.993,0.721,0.320,0.562,0.524,��,8.4,��
2024/05/06,23:20,0.521,0.797,0.497,0.993,0.721,0.319,0.564,0.524,��,9.0,�L
2024/05/06,23:30,0.521,0.796,0.497,0.994,0.722,0.319,0.564,0.524,��,8.7,�L
2024/05/06,23:40,0.523,0.797,0.499,0.995,0.723,0.320,0.561,0.524,��,8.0,�L
2024/05/06,23:50,0.522,0.794,0.498,0.994,0.722,0.319,0.562,0.524,��,8.3,�L
